Location: Unspecified
(0.0000°N, 0.0000°E)
Time: 21:24:23
(UTC+00:00)

deb Kosmos-1275 - Pass Details

Date: 14 March 2026
Orbit: 924 x 994 km, 82.9° (Epoch: 11 April)

Event Time Altitude Azimuth Distance (km) Brightness Sun altitude
Rises 19:21:50 0° 318° (NW) 3,640 ? -18.2°
Reaches altitude 10° 19:26:01 10° 290° (WNW) 2,713 ? -19.2°
Maximum altitude 19:28:30 13° 266° (W) 2,538 ? -19.8°
Drops below altitude 10° 19:31:01 10° 242° (WSW) 2,734 ? -20.5°
Sets 19:35:19 0° 215° (SW) 3,696 ? -21.5°
